Jackson, MN

9:42 AM CST on November 21, 2019 (GMT -0600)
Jackson Municipal

Weather History for KMJQ - August, 2019

Change the Weather History Date:

Saturday, August 10, 2019

  Actual Average Record
Temperature  
Mean Temperature 71 °F -  
Max Temperature 80 °F 76 °F 89 °F (2016)
Min Temperature 62 °F 56 °F 50 °F (2004)
Cooling Degree Days 6    
Growing Degree Days 21 (Base 50)    
Moisture  
Dew Point 64 °F    
Average Humidity 80    
Maximum Humidity 100    
Minimum Humidity 70    
Precipitation  
Precipitation 0.05 in - - ()
Sea Level Pressure  
Sea Level Pressure 29.94 in    
Wind  
Wind Speed 8 mph (SSE)    
Max Wind Speed 18 mph    
Max Gust Speed 21 mph    
Visibility 9 miles    
Events      
Averages and records for this station are not official NWS values.
T = Trace of Precipitation, MM = Missing Value Source: NWS Daily Summary

Daily Weather History Graph

Daily Weather History Graph

Search for Another Location

Airport or City:

Astronomy

Aug. 10, 2019 Rise Set
Actual Time 6:18 AM CDT 8:31 PM CDT
Civil Twilight 5:47 AM CDT 9:02 PM CDT
Nautical Twilight 5:07 AM CDT 9:41 PM CDT
Astronomical Twilight 4:24 AM CDT 10:24 PM CDT
Moon 5:18 PM CDT (8/10) 1:53 AM CDT (8/10)
Length of Visible Light 15h 15m
Length of Day
14h 12m
Waxing Gibbous, 79% of the Moon is Illuminated
Aug 10
Waxing Gibbous
Aug 15
Full
Aug 23
Last Quarter
Aug 30
New
Sep 5
First Quarter

Hourly Weather History & Observations

Time (CDT) Temp. Heat Index Dew Point Humidity Pressure Visibility Wind Dir Wind Speed Gust Speed Precip Events Conditions
12:15 AM 64.4 °F - 60.8 °F 88% 29.98 in 10.0 mi ESE 5.8 mph - N/A   Clear
12:35 AM 64.4 °F - 60.8 °F 88% 29.98 in 10.0 mi East 4.6 mph - N/A   Scattered Clouds
12:55 AM 64.4 °F - 60.8 °F 88% 29.98 in 10.0 mi East 6.9 mph - N/A   Scattered Clouds
1:15 AM 64.4 °F - 59.0 °F 83% 29.97 in 10.0 mi ESE 8.1 mph - N/A   Overcast
1:35 AM 64.4 °F - 59.0 °F 83% 29.97 in 10.0 mi ESE 10.4 mph - N/A   Mostly Cloudy
1:55 AM 64.4 °F - 57.2 °F 77% 29.97 in 10.0 mi ESE 9.2 mph - N/A   Scattered Clouds
2:15 AM 64.4 °F - 57.2 °F 77% 29.97 in 10.0 mi SE 8.1 mph - N/A   Mostly Cloudy
2:16 AM 64.4 °F - 57.2 °F 77% 29.97 in 10.0 mi SE 8.1 mph - N/A   Mostly Cloudy
2:35 AM 64.4 °F - 57.2 °F 77% 29.97 in 10.0 mi SE 9.2 mph - N/A   Overcast
2:56 AM 64.4 °F - 55.4 °F 73% 29.96 in 10.0 mi SE 8.1 mph - N/A   Overcast
3:15 AM 64.4 °F - 55.4 °F 73% 29.96 in 10.0 mi SE 8.1 mph - N/A   Overcast
3:35 AM 64.4 °F - 55.4 °F 73% 29.96 in 10.0 mi SE 11.5 mph - N/A   Overcast
3:55 AM 64.4 °F - 55.4 °F 73% 29.95 in 10.0 mi SE 10.4 mph - N/A   Mostly Cloudy
4:15 AM 64.4 °F - 55.4 °F 73% 29.95 in 10.0 mi SE 9.2 mph - N/A   Overcast
4:16 AM 64.4 °F - 55.4 °F 73% 29.95 in 10.0 mi SE 9.2 mph - N/A   Overcast
4:35 AM 64.4 °F - 55.4 °F 73% 29.96 in 10.0 mi SE 8.1 mph - N/A   Overcast
4:55 AM 64.4 °F - 57.2 °F 77% 29.95 in 10.0 mi SE 8.1 mph - N/A   Overcast
5:15 AM 62.6 °F - 57.2 °F 82% 29.96 in 2.0 mi ESE 5.8 mph - N/A   Overcast
5:35 AM 62.6 °F - 59.0 °F 88% 29.96 in 10.0 mi ESE 6.9 mph - 0.02 in   Overcast
5:55 AM 62.6 °F - 59.0 °F 88% 29.96 in 10.0 mi East 6.9 mph - 0.04 in   Overcast
6:15 AM 62.6 °F - 59.0 °F 88% 29.97 in 10.0 mi East 8.1 mph - 0.01 in   Overcast
6:35 AM 62.6 °F - 59.0 °F 88% 29.98 in 10.0 mi NE 5.8 mph - 0.01 in   Overcast
6:55 AM 62.6 °F - 59.0 °F 88% 29.98 in 10.0 mi East 10.4 mph - 0.01 in   Overcast
7:15 AM 62.6 °F - 59.0 °F 88% 29.99 in 10.0 mi East 10.4 mph - N/A   Overcast
7:35 AM 62.6 °F - 59.0 °F 88% 29.98 in 10.0 mi East 10.4 mph 17.3 mph N/A   Overcast
7:55 AM 62.6 °F - 59.0 °F 88% 29.98 in 10.0 mi ESE 11.5 mph 17.3 mph N/A   Mostly Cloudy
8:15 AM 64.4 °F - 59.0 °F 83% 29.98 in 10.0 mi ESE 11.5 mph - N/A   Mostly Cloudy
8:35 AM 64.4 °F - 60.8 °F 88% 29.98 in 10.0 mi ESE 9.2 mph - N/A   Mostly Cloudy
8:55 AM 66.2 °F - 60.8 °F 83% 29.98 in 10.0 mi SE 11.5 mph - N/A   Overcast
9:15 AM 66.2 °F - 60.8 °F 83% 29.98 in 10.0 mi SE 13.8 mph - N/A   Mostly Cloudy
9:35 AM 68.0 °F - 60.8 °F 78% 29.97 in 10.0 mi SE 18.4 mph - N/A   Scattered Clouds
9:55 AM 68.0 °F - 60.8 °F 78% 29.97 in 10.0 mi SE 15.0 mph - N/A   Clear
10:15 AM 69.8 °F - 60.8 °F 73% 29.97 in 10.0 mi SE 15.0 mph - N/A   Clear
10:35 AM 69.8 °F - 60.8 °F 73% 29.97 in 10.0 mi SE 12.7 mph - N/A   Clear
10:55 AM 71.6 °F - 62.6 °F 73% 29.96 in 10.0 mi SE 15.0 mph 20.7 mph N/A   Clear
11:15 AM 71.6 °F - 62.6 °F 73% 29.96 in 10.0 mi SSE 12.7 mph 19.6 mph N/A   Clear
11:35 AM 73.4 °F - 64.4 °F 73% 29.95 in 10.0 mi SSE 12.7 mph 19.6 mph N/A   Clear
11:56 AM 73.4 °F - 64.4 °F 73% 29.95 in 10.0 mi South 11.5 mph - N/A   Scattered Clouds
12:15 PM 73.4 °F - 64.4 °F 73% 29.93 in 10.0 mi SSE 15.0 mph - N/A   Scattered Clouds
12:35 PM 75.2 °F - 66.2 °F 73% 29.92 in 10.0 mi SSE 10.4 mph - N/A   Scattered Clouds
12:56 PM 77.0 °F - 68.0 °F 74% 29.92 in 10.0 mi South 11.5 mph - N/A   Scattered Clouds
1:15 PM 77.0 °F - 68.0 °F 74% 29.92 in 10.0 mi South 10.4 mph - N/A   Overcast
1:35 PM 77.0 °F - 68.0 °F 74% 29.92 in 10.0 mi South 9.2 mph - N/A   Overcast
1:55 PM 77.0 °F - 68.0 °F 74% 29.92 in 10.0 mi South 11.5 mph - N/A   Overcast
2:15 PM 77.0 °F - 68.0 °F 74% 29.91 in 10.0 mi SSE 8.1 mph - N/A   Overcast
2:35 PM 78.8 °F - 69.8 °F 74% 29.91 in 10.0 mi South 10.4 mph - N/A   Overcast
2:55 PM 80.6 °F 83.9 °F 69.8 °F 70% 29.91 in 10.0 mi SSE 9.2 mph - N/A   Mostly Cloudy
3:15 PM 80.6 °F 83.9 °F 69.8 °F 70% 29.91 in 10.0 mi South 8.1 mph - N/A   Overcast
3:35 PM 78.8 °F - 69.8 °F 74% 29.91 in 10.0 mi South 8.1 mph - N/A   Overcast
3:55 PM 78.8 °F - 69.8 °F 74% 29.91 in 10.0 mi South 5.8 mph - N/A   Overcast
4:15 PM 80.6 °F 84.6 °F 71.6 °F 74% 29.91 in 10.0 mi South 3.5 mph - N/A   Overcast
4:35 PM 78.8 °F - 71.6 °F 78% 29.91 in 5.0 mi SW 4.6 mph - N/A   Overcast
4:55 PM 80.6 °F 84.6 °F 71.6 °F 74% 29.90 in 10.0 mi SW 8.1 mph - N/A   Mostly Cloudy
5:15 PM 80.6 °F 84.6 °F 71.6 °F 74% 29.90 in 10.0 mi SSW 8.1 mph - N/A   Scattered Clouds
5:35 PM 80.6 °F 84.6 °F 71.6 °F 74% 29.90 in 10.0 mi SW 8.1 mph - N/A   Scattered Clouds
5:55 PM 80.6 °F 84.6 °F 71.6 °F 74% 29.90 in 10.0 mi SW 9.2 mph 16.1 mph N/A   Scattered Clouds
6:15 PM 80.6 °F 84.6 °F 71.6 °F 74% 29.89 in 10.0 mi WSW 9.2 mph - N/A   Scattered Clouds
6:35 PM 80.6 °F 84.6 °F 71.6 °F 74% 29.89 in 10.0 mi WSW 10.4 mph 17.3 mph N/A   Mostly Cloudy
6:55 PM 78.8 °F - 71.6 °F 78% 29.90 in 10.0 mi WSW 10.4 mph - N/A   Scattered Clouds
7:15 PM 78.8 °F - 71.6 °F 78% 29.90 in 10.0 mi SW 9.2 mph - N/A   Clear
7:35 PM 78.8 °F - 71.6 °F 78% 29.90 in 10.0 mi WSW 6.9 mph - N/A   Clear
7:55 PM 77.0 °F - 71.6 °F 83% 29.90 in 10.0 mi WSW 5.8 mph - N/A   Scattered Clouds
8:15 PM 77.0 °F - 71.6 °F 83% 29.90 in 10.0 mi SW 4.6 mph - N/A   Mostly Cloudy
8:35 PM 77.0 °F - 71.6 °F 83% 29.90 in 10.0 mi SSW 4.6 mph - N/A   Overcast
8:55 PM 75.2 °F - 69.8 °F 83% 29.90 in 10.0 mi WSW 3.5 mph - N/A   Mostly Cloudy
9:15 PM 75.2 °F - 71.6 °F 89% 29.91 in 10.0 mi WSW 4.6 mph - N/A   Mostly Cloudy
9:35 PM 73.4 °F - 69.8 °F 88% 29.91 in 10.0 mi Calm Calm - N/A   Mostly Cloudy
9:55 PM 73.4 °F - 69.8 °F 88% 29.92 in 10.0 mi Calm Calm - N/A   Mostly Cloudy
10:15 PM 73.4 °F - 69.8 °F 88% 29.92 in 10.0 mi Calm Calm - N/A   Mostly Cloudy
10:35 PM 71.6 °F - 69.8 °F 94% 29.93 in 7.0 mi Calm Calm - N/A   Mostly Cloudy
10:55 PM 71.6 °F - 71.6 °F 100% 29.94 in 5.0 mi Calm Calm - N/A   Scattered Clouds
11:15 PM 71.6 °F - 69.8 °F 94% 29.94 in 5.0 mi Calm Calm - N/A   Clear
11:35 PM 69.8 °F - 69.8 °F 100% 29.95 in 4.0 mi Calm Calm - N/A   Scattered Clouds
11:55 PM 71.6 °F - 71.6 °F 100% 29.95 in 1.2 mi Calm Calm - N/A   Overcast